Weather History for Fryeburg, ME

Change the Weather History Date:

Saturday, January 19, 2013

  Actual Average Record
Temperature  
Mean Temperature 20 °F -  
Max Temperature 33 °F 25 °F 42 °F (1999)
Min Temperature 6 °F 2 °F -27 °F (1997)
Degree Days  
Heating Degree Days 46    
Moisture  
Dew Point 12 °F    
Average Humidity 72    
Maximum Humidity 92    
Minimum Humidity 50    
Precipitation  
Precipitation 0.01 in - - ()
Sea Level Pressure  
Sea Level Pressure 30.08 in    
Wind  
Wind Speed 1 mph (SSW)    
Max Wind Speed 7 mph    
Max Gust Speed -    
Visibility 8 miles    
Events Snow    
Averages and records for this station are not official NWS values.
T = Trace of Precipitation, MM = Missing Value Source: NWS Daily Summary

Daily Weather History Graph

Daily Weather History Graph

Search for Another Location

Airport:

Trip Planner

Search our weather history database for the weather conditions in past years. The results will help you decide how hot, cold, wet, or windy it might be!

Date:

Astronomy

Jan. 19, 2013 Rise Set
Actual Time 7:12 AM EST 4:36 PM EST
Civil Twilight 6:40 AM EST 5:08 PM EST
Nautical Twilight 6:05 AM EST 5:44 PM EST
Astronomical Twilight 5:31 AM EST 6:18 PM EST
Moon 11:03 AM EST (1/19) 12:40 AM EST (1/19)
Length of Visible Light 10h 27m
Length of Day
9h 24m
First Quarter, 57% of the Moon is Illuminated
Jan 19
First Quarter
Jan 26
Full
Feb 3
Last Quarter
Feb 10
New
Feb 17
First Quarter

Hourly Weather History & Observations

Time (EST) Temp. Windchill Dew Point Humidity Pressure Visibility Wind Dir Wind Speed Gust Speed Precip Events Conditions
12:54 AM 6.1 °F - -2.0 °F 69% 30.33 in 10.0 mi Calm Calm - N/A   Overcast
1:54 AM 9.0 °F - 1.9 °F 73% 30.31 in 9.0 mi Calm Calm - 0.00 in   Overcast
2:54 AM 10.9 °F - 3.9 °F 73% 30.27 in 10.0 mi Calm Calm - N/A   Overcast
3:54 AM 10.0 °F - 3.9 °F 76% 30.23 in 10.0 mi Calm Calm - 0.00 in   Mostly Cloudy
4:54 AM 12.0 °F 5.9 °F 5.0 °F 73% 30.20 in 10.0 mi South 3.5 mph - 0.00 in   Overcast
5:19 AM 14.0 °F - 6.8 °F 73% 30.16 in 2.5 mi Calm Calm - 0.00 in Snow Light Snow
5:30 AM 14.0 °F - 6.8 °F 73% 30.15 in 1.2 mi Calm Calm - 0.00 in Snow Light Snow
5:44 AM 12.2 °F 6.1 °F 8.6 °F 85% 30.14 in 1.5 mi SSE 3.5 mph - 0.00 in Snow Light Snow
5:54 AM 14.0 °F - 9.0 °F 80% 30.17 in 1.5 mi Calm Calm - 0.00 in Snow Light Snow
6:02 AM 14.0 °F - 10.4 °F 86% 30.14 in 1.8 mi Calm Calm - 0.01 in Snow Light Snow
6:29 AM 14.0 °F - 10.4 °F 86% 30.14 in 3.0 mi Calm Calm - 0.01 in Snow Light Snow
6:40 AM 12.2 °F - 10.4 °F 92% 30.13 in 4.0 mi Calm Calm - 0.01 in Snow Light Snow
6:54 AM 14.0 °F 8.2 °F 10.9 °F 88% 30.16 in 10.0 mi SSE 3.5 mph - 0.01 in   Overcast
7:54 AM 16.0 °F - 12.0 °F 84% 30.14 in 10.0 mi Calm Calm - N/A   Overcast
8:54 AM 18.0 °F - 14.0 °F 84% 30.12 in 10.0 mi Calm Calm - 0.00 in   Overcast
9:54 AM 25.0 °F 19.3 °F 12.9 °F 60% 30.11 in 10.0 mi SW 4.6 mph - 0.00 in   Mostly Cloudy
10:54 AM 27.0 °F 19.5 °F 12.9 °F 56% 30.07 in 10.0 mi SW 6.9 mph - N/A   Scattered Clouds
11:54 AM 28.0 °F 20.8 °F 14.0 °F 56% 30.02 in 10.0 mi Variable 6.9 mph - N/A   Clear
12:54 PM 30.0 °F - 15.1 °F 54% 29.99 in 10.0 mi Calm Calm - N/A   Clear
1:54 PM 32.0 °F 25.6 °F 15.1 °F 50% 29.97 in 10.0 mi SSW 6.9 mph - N/A   Clear
2:54 PM 33.1 °F - 16.0 °F 50% 29.96 in 10.0 mi Calm Calm - N/A   Mostly Cloudy
3:54 PM 33.1 °F - 19.0 °F 56% 29.95 in 10.0 mi Calm Calm - N/A   Overcast
4:54 PM 30.0 °F 26.5 °F 18.0 °F 61% 29.95 in 10.0 mi West 3.5 mph - N/A   Overcast
5:54 PM 28.0 °F - 18.0 °F 66% 29.96 in 10.0 mi Calm Calm - N/A   Overcast
6:54 PM 27.0 °F - 18.0 °F 69% 29.96 in 10.0 mi Calm Calm - 0.00 in   Mostly Cloudy
7:54 PM 25.0 °F 20.7 °F 17.1 °F 72% 29.96 in 10.0 mi NW 3.5 mph - N/A   Partly Cloudy
8:54 PM 25.0 °F - 18.0 °F 75% 29.95 in 10.0 mi Calm Calm - N/A   Mostly Cloudy
9:54 PM 25.0 °F - 19.0 °F 78% 29.93 in 10.0 mi Calm Calm - N/A   Overcast
10:54 PM 26.1 °F - 19.9 °F 78% 29.89 in 10.0 mi Calm Calm - 0.00 in   Overcast
11:54 PM 26.1 °F - 19.9 °F 78% 29.85 in 10.0 mi Calm Calm - N/A   Overcast